Location: Unspecified
(0.0000°N, 0.0000°E)
Time: 06:55:25
(UTC+00:00)

ARIANE 6 FM1 Upper Stage - Pass Details

Date: 02 November 2024
Orbit: 558 x 596 km, 62.0° (Epoch: 10 November)

Event Time Altitude Azimuth Distance (km) Brightness Sun altitude
Rises 04:36:42 0° 181° (S) 2,738 6.4 -16.1°
Reaches altitude 10° 04:39:21 10° 165° (SSE) 1,841 5.7 -15.5°
Maximum altitude 04:42:30 21° 115° (ESE) 1,284 5.5 -14.7°
Drops below altitude 10° 04:45:38 10° 65° (ENE) 1,839 6.0 -14.0°
Sets 04:48:16 0° 49° (NE) 2,736 6.7 -13.4°
